Location: Arclight Observatory
(36.5667°N, 87.3333°W)
Time: 20:04:18
(UTC-06:00)

ISS - Visible Passes

Search period start: 19 February 2018 00:00
Search period end: 01 March 2018 00:00
Orbit: 403 x 407 km, 51.6° (Epoch: 20 February)

Date Brightness Start Highest point End Pass type
(mag) Time Alt. Az. Time Alt. Az. Time Alt. Az.
24 Feb -1.2 05:40:15 10° S 05:42:49 21° SE 05:45:23 10° ENE visible
25 Feb -0.5 04:50:03 10° SE 04:50:46 11° SE 04:51:27 10° ESE visible
26 Feb -3.3 05:31:21 10° SW 05:34:34 60° SE 05:37:48 10° NE visible
27 Feb -2.0 04:41:19 22° SSE 04:42:23 27° SE 04:45:14 10° ENE visible
28 Feb -0.4 03:51:46 11° E 03:51:46 11° E 03:52:01 10° E visible
28 Feb -3.5 05:24:27 20° WSW 05:26:26 48° NW 05:29:37 10° NE visible
